Location: Haulchin
(50.3172°N, 3.4360°E)
Time: 04:18:46
(UTC+00:00)

Cosmos 1408 - Pass Details

Date: 23 May 2024
Orbit: 361 x 376 km, 82.6° (Epoch: 21 June)

Event Time Altitude Azimuth Distance (km) Brightness Sun altitude
Exits shadow 01:28:22 14° 137° (SE) 1,159 4.3 -15.3°
Maximum altitude 01:30:08 22° 91° (E) 853 4.1 -15.2°
Drops below altitude 10° 01:32:30 10° 37° (NE) 1,361 6.2 -15.0°
Enters shadow 02:25:11 -73° 191° (SSW) 12,564 9.6 -10.5°
